Location: Boiro
(42.6475°N, 8.8834°W)
Time: 20:53:06
(UTC+01:00)

Vanguard 3 - Pass Details

Date: 08 December 2021
Orbit: 508 x 3260 km, 33.3° (Epoch: 17 January)

Event Time Altitude Azimuth Distance (km) Brightness Sun altitude
Rises 02:21:45 0° 211° (SSW) 6,054 - -67.1°
Reaches altitude 10° 02:25:51 10° 203° (SSW) 5,371 - -66.7°
Maximum altitude 02:40:41 36° 144° (SE) 4,291 - -64.9°
Exits shadow 02:47:02 30° 114° (ESE) 4,681 10.8 -64.1°
Drops below altitude 10° 02:57:19 10° 88° (E) 6,054 11.8 -62.7°
Sets 03:02:15 0° 81° (E) 6,882 12.2 -62.0°
